Regional Weather Roundup
Issued by NWS

Home | Current Version | Previous Version | Text Only | Print | Product List | Glossary On
Versions: 1 2 3 4 5 6 7 8 9 10 11 12 13 14 15 16 17 18 19 20 21 22 23 24 25 26 27 28 29 30 31 32 33 34 35 36 37 38 39 40 41 42 43 44 45 46 47 48 49 50
000
ASUS43 KLSX 271410
RWRMO

WEATHER SUMMARY FOR MISSOURI
NATIONAL WEATHER SERVICE SPRINGFIELD MO
900 AM CDT MON JUN 27 2016

NOTE: "FAIR" INDICATES FEW OR NO CLOUDS BELOW 12,000 FEET WITH NO
       SIGNIFICANT WEATHER AND/OR OBSTRUCTIONS TO VISIBILITY.
       CURRENT SKY AND/OR WEATHER CONDITIONS ARE NOT AVAILABLE FOR
       CHILLICOTHE AND FARMINGTON.

MOZ001>031-035>038-043-044-053-054-271500-
...NORTHERN AND WESTERN MISSOURI...

CITY           SKY/WX    TMP DP  RH WIND       PRES   REMARKS
KANSAS CTY INT MOSUNNY   75  69  81 SE6       30.15S
KANSAS C DTWN  SUNNY     77  70  79 E5        30.15R
LEE`S SUMMIT   PTSUNNY   72  71  97 E5        30.17R
ST JOSEPH      SUNNY     76  69  79 CALM      30.16R
CHILLICOTHE      N/A     79  71  76 CALM      30.15F
KIRKSVILLE     SUNNY     81  66  60 CALM      30.15S

$$
MOZ066>068-077>081-088>096-101>105-271500-
...SOUTHWEST MISSOURI...

CITY           SKY/WX    TMP DP  RH WIND       PRES   REMARKS
SPRINGFIELD    CLOUDY    75  69  81 NW6       30.15S
JOPLIN         CLOUDY    76  71  85 CALM      30.16R
BRANSON        CLOUDY    73  72  94 W3        30.16R

$$
MOZ032>034-039>042-045>050-055>058-069>072-271500-
...CENTRAL MISSOURI...

CITY           SKY/WX    TMP DP  RH WIND       PRES   REMARKS
COLUMBIA       SUNNY     77  72  84 CALM      30.14S
JEFFERSON CITY CLOUDY    77  71  82 CALM      30.13S
ROLLA          CLOUDY    75  71  87 N8        30.14R
SEDALIA        SUNNY     79  72  79 N5        30.16R
WHITEMAN AFB   MOSUNNY   77  77  99 E2        30.14S
OSAGE BEACH    CLOUDY    73  72  94 CALM      30.15S

$$
MOZ051-052-059>065-271500-
...EAST CENTRAL MISSOURI...

CITY           SKY/WX    TMP DP  RH WIND       PRES   REMARKS
ST LOUIS INTL  MOSUNNY   84  68  58 NE5       30.13R
SPIRIT OF STL  SUNNY     82  73  74 CALM      30.11R
ST CHARLES     SUNNY     84  68  58 VRB5      30.11R

$$
MOZ072>076-082>087-097>100-106>115-271500-
...SOUTH CENTRAL AND SOUTHEAST MISSOURI...

CITY           SKY/WX    TMP DP  RH WIND       PRES   REMARKS
CAPE GIRARDEAU MOSUNNY   82  73  74 E7        30.07S
FARMINGTON     PTSUNNY   78  74  87 N7        30.13R
POPLAR BLUFF   PTSUNNY   81  73  76 NE5       30.07R
WEST PLAINS    MOSUNNY   77  70  79 N5        30.15R

$$




USA.gov is the U.S. government's official web portal to all federal, state and local government web resources and services.